[[{"header":{"parameterUnit":"m.s-1","parameterCategory":1,"la1":30.2991,"la2":30.254,"lo1":-89.0895,"lo2":-89.0444,"dy":0.0017,"dx":0.0017,"nx":28,"ny":28,"refTime":"2025-03-23T21:00:00:Z","depth":0,"parameterNumber":2,"parameterNumberName":"U-component_of_WINDS"},"data":[0,0,0,0,0,0,0,0,0,0,0,0,0,0,0,0,0,0,0,0,0,0,0,0,0,0,0,0,0,0,0,0,0,0,0,0,0,0,0,0,0,0,0,0,0,0,0,0,0,0,0,0,0,0,0,0,0,0,0.4014,0.4014,0,0.4024,0.4025,0.4025,0.4042,0.4042,0.4043,0.4043,0.4054,0.4054,0.4054,0,0,0,0,0,0,0,0,0,0,0,0,0,0.4008,0.4008,0.4014,0.4014,0.4014,0.4024,0.4025,0.4025,0.4042,0.4043,0.4043,0.4043,0.4054,0.4054,0.4054,0,0,0,0,0,0,0,0,0,0,0,0,0,0.4014,0.4008,0.4014,0.4024,0.4025,0.4024,0.4025,0.4025,0.4042,0.4043,0.4043,0.4043,0.4054,0.4054,0.4054,0.4044,0,0,0.4054,0.4054,0,0,0,0,0,0,0,0,0.4014,0.4014,0.4023,0.4023,0.4025,0.4033,0.4027,0.4031,0.4042,0.4036,0.4043,0.4044,0.4046,0.4047,0.4048,0.4044,0.4045,0.4054,0.4054,0.4054,0.4054,0,0,0,0,0,0,0,0.4013,0.4014,0.4018,0.4023,0.4024,0.4028,0.4029,0.4027,0.4038,0.4036,0.4038,0.4039,0.4047,0.4048,0.4048,0.4045,0.4054,0.4054,0.4054,0.4053,0.4033,0.4032,0,0,0,0,0,0,0.4011,0.4013,0.4018,0.4018,0.402,0.4028,0.4029,0.4029,0.4038,0.404,0.4038,0.4039,0.4048,0.4048,0.4049,0.4037,0.4054,0.4053,0.4053,0.4033,0.4032,0.4032,0,0,0,0,0,0,0.4011,0.4012,0.4017,0.4016,0.4017,0.4027,0.4027,0.4029,0.403,0.404,0.4042,0.4037,0.4048,0.4049,0.4045,0.4037,0.4053,0.4053,0.4034,0.4033,0.4032,0.4013,0,0,0,0,0,0,0.4011,0.4012,0.4008,0.4016,0.4017,0.4013,0.4027,0.4029,0.403,0.4032,0.4039,0.4041,0.4048,0.4044,0.4045,0.4038,0.4053,0.4034,0.4033,0.4032,0.4015,0.4012,0.401,0,0,0,0,0,0.4011,0.4003,0.4008,0.4008,0.4013,0.4013,0.4014,0.4023,0.403,0.4026,0.4032,0.4041,0.4038,0.4044,0.4044,0.4037,0.4035,0.4034,0.4032,0.4016,0.4012,0.401,0,0,0,0,0,0,0.3994,0.4004,0.401,0.4004,0.4007,0.4016,0.4012,0.4019,0.4021,0.4022,0.4033,0.4035,0.4029,0.4033,0.4039,0.4027,0.4038,0.4037,0.4025,0.4022,0.402,0.4018,0.4053,0,0,0,0,0,0.3989,0.3988,0.3997,0.3991,0.3993,0.4002,0.4002,0.4008,0.4013,0.4014,0.402,0.4023,0.4023,0.4023,0.4023,0.4015,0.4017,0.401,0.4008,0.4006,0.4004,0.3999,0.3996,0.4028,0.4028,0.4028,0,0,0.398,0.3985,0.3984,0.3988,0.3991,0.399,0.4003,0.4001,0.4,0.4014,0.401,0.4014,0.4019,0.4012,0.401,0.4015,0.3996,0.4004,0.4003,0.4002,0.3998,0.3995,0.3992,0.4027,0.4027,0.4027,0,0,0.3962,0.3966,0.3961,0.3964,0.3969,0.3975,0.3974,0.3981,0.3984,0.3981,0.3991,0.399,0.399,0.3992,0.3994,0.3976,0.3983,0.3976,0.3962,0.3957,0.3955,0.3953,0.3945,0.3943,0.3974,0.3974,0.3974,0,0.395,0.3948,0.3958,0.3955,0.3956,0.3968,0.3963,0.3965,0.397,0.397,0.3977,0.3976,0.398,0.3974,0.3969,0.397,0.3969,0.3975,0.3954,0.3952,0.395,0.3943,0.3941,0.3973,0.3973,0.3973,0.3974,0,0.3932,0.3931,0.3926,0.393,0.393,0.3926,0.3935,0.3934,0.3941,0.3946,0.3941,0.3947,0.3948,0.3947,0.3954,0.3941,0.3945,0.3952,0.3963,0.3946,0.394,0.3937,0.3972,0.3972,0.3972,0.3973,0,0,0.3904,0.3913,0.3911,0.3912,0.3919,0.3917,0.3913,0.3915,0.3913,0.3916,0.3912,0.3912,0.3919,0.392,0.3927,0.3922,0.3906,0.3931,0.3931,0.3925,0.3892,0.3885,0.3882,0.3912,0.3911,0.3911,0.3891,0,0.3887,0.3881,0.3889,0.3881,0.3879,0.389,0.3887,0.389,0.3894,0.3893,0.3899,0.3897,0.3907,0.3908,0.3904,0.3909,0.39,0.3911,0.3908,0.3908,0.3905,0.3879,0.3872,0.3854,0.3889,0.3889,0.3888,0,0.3866,0.3867,0.3859,0.3864,0.3864,0.386,0.3861,0.386,0.3864,0.3867,0.3868,0.3876,0.3872,0.3883,0.3877,0.3884,0.3884,0.3886,0.3885,0.3885,0.3896,0.3877,0.3848,0.3845,0.3885,0.3885,0.3885,0,0.3845,0.3845,0.3839,0.384,0.3847,0.3844,0.3847,0.3851,0.385,0.3851,0.3851,0.3852,0.3852,0.3852,0.3859,0.3867,0.3852,0.3864,0.3854,0.3854,0.385,0.385,0.382,0.3851,0.3851,0.3851,0.3851,0,0.3825,0.3819,0.383,0.3826,0.3819,0.3829,0.3822,0.3826,0.3829,0.3826,0.3837,0.3833,0.3844,0.3842,0.3848,0.3841,0.3842,0.3844,0.3845,0.3842,0.3842,0.3842,0.3843,0.385,0.3851,0.3851,0.3851,0,0.38,0.3807,0.3802,0.3808,0.381,0.3804,0.381,0.3806,0.3812,0.3808,0.3807,0.3815,0.3813,0.3821,0.382,0.3824,0.3814,0.3818,0.3813,0.3814,0.3803,0.3804,0.3771,0.3767,0.3802,0.3801,0.3801,0,0.3786,0.3781,0.3787,0.3786,0.3788,0.3786,0.3785,0.3794,0.3793,0.3796,0.3792,0.3791,0.3791,0.3787,0.3792,0.3792,0.3795,0.3784,0.3795,0.3792,0.3794,0.3794,0.3793,0.3781,0.3781,0.378,0.378,0,0.376,0.3764,0.3763,0.3763,0.3762,0.3762,0.3763,0.3762,0.3771,0.377,0.3768,0.3767,0.3766,0.3764,0.3765,0.3767,0.3775,0.3776,0.3774,0.3771,0.3767,0.3768,0.3805,0.3777,0.3777,0.3778,0.3778,0.3778,0.374,0.3736,0.3739,0.3737,0.3739,0.3739,0.3736,0.3741,0.3739,0.3739,0.3744,0.3741,0.3743,0.3744,0.3746,0.3743,0.3748,0.3745,0.3744,0.3743,0.374,0.3768,0.3743,0.3743,0.3743,0.3743,0.3744,0,0.3713,0.3716,0.3714,0.3715,0.3713,0.3721,0.3722,0.372,0.3717,0.3719,0.3718,0.3715,0.3713,0.3718,0.3717,0.3713,0.3717,0.3713,0.3712,0.3713,0.3736,0.3738,0.371,0.371,0.371,0.371,0.371,0.371,0.3699,0.3693,0.3697,0.3691,0.3693,0.369,0.369,0.369,0.3691,0.3687,0.3686,0.3689,0.3692,0.369,0.3689,0.369,0.3689,0.3683,0.3686,0.3708,0.3711,0.3714,0.3716,0.3683,0.3683,0.3662,0.3662,0.3662]},{"header":{"parameterUnit":"m.s-1","parameterCategory":1,"la1":30.2991,"la2":30.254,"lo1":-89.0895,"lo2":-89.0444,"dy":0.0017,"dx":0.0017,"nx":28,"ny":28,"refTime":"2025-03-23T21:00:00:Z","depth":0,"parameterNumber":3,"parameterNumberName":"V-component_of_WINDS"},"data":[0,0,0,0,0,0,0,0,0,0,0,0,0,0,0,0,0,0,0,0,0,0,0,0,0,0,0,0,0,0,0,0,0,0,0,0,0,0,0,0,0,0,0,0,0,0,0,0,0,0,0,0,0,0,0,0,0,0,-0.2454,-0.2455,0,-0.2464,-0.2464,-0.2464,-0.2454,-0.2454,-0.2454,-0.2453,-0.2464,-0.2465,-0.2465,0,0,0,0,0,0,0,0,0,0,0,0,0,-0.2429,-0.243,-0.2454,-0.2455,-0.2455,-0.2464,-0.2464,-0.2464,-0.2454,-0.2454,-0.2454,-0.2453,-0.2464,-0.2465,-0.2466,0,0,0,0,0,0,0,0,0,0,0,0,0,-0.244,-0.243,-0.2454,-0.2451,-0.2451,-0.2464,-0.2464,-0.2464,-0.2455,-0.2454,-0.2453,-0.2453,-0.2464,-0.2465,-0.2466,-0.2483,0,0,-0.2469,-0.2469,0,0,0,0,0,0,0,0,-0.2439,-0.2441,-0.2451,-0.2451,-0.2451,-0.2457,-0.2459,-0.2471,-0.2455,-0.2453,-0.2453,-0.2453,-0.2462,-0.2464,-0.2467,-0.2484,-0.2484,-0.2469,-0.2469,-0.247,-0.247,0,0,0,0,0,0,0,-0.2438,-0.244,-0.2458,-0.2452,-0.2451,-0.2449,-0.245,-0.2461,-0.2461,-0.2453,-0.2453,-0.2454,-0.2462,-0.2466,-0.2467,-0.2484,-0.2469,-0.247,-0.247,-0.2471,-0.2517,-0.2518,0,0,0,0,0,0,-0.2438,-0.244,-0.2458,-0.2459,-0.2443,-0.245,-0.2451,-0.2456,-0.2461,-0.2461,-0.2454,-0.2453,-0.2464,-0.2466,-0.2467,-0.2489,-0.247,-0.2471,-0.2471,-0.2517,-0.2518,-0.2518,0,0,0,0,0,0,-0.2437,-0.244,-0.2458,-0.2449,-0.2451,-0.2451,-0.2457,-0.2456,-0.246,-0.2462,-0.2462,-0.2458,-0.2464,-0.2466,-0.2479,-0.2489,-0.2471,-0.2472,-0.2516,-0.2517,-0.2518,-0.2531,0,0,0,0,0,0,-0.2437,-0.244,-0.2446,-0.2449,-0.2452,-0.2469,-0.2457,-0.2457,-0.2461,-0.246,-0.2465,-0.2465,-0.2464,-0.2478,-0.248,-0.249,-0.2473,-0.2515,-0.2516,-0.2518,-0.253,-0.2533,-0.2535,0,0,0,0,0,-0.2436,-0.2449,-0.2446,-0.2448,-0.2459,-0.247,-0.2471,-0.2469,-0.2462,-0.2469,-0.247,-0.2465,-0.2487,-0.248,-0.2482,-0.2492,-0.2515,-0.2516,-0.2518,-0.2529,-0.2532,-0.2535,0,0,0,0,0,0,-0.2447,-0.245,-0.2446,-0.2461,-0.2465,-0.2468,-0.2476,-0.2472,-0.2479,-0.2478,-0.2475,-0.2476,-0.2491,-0.2493,-0.2484,-0.251,-0.25,-0.2502,-0.2508,-0.2511,-0.2513,-0.2513,-0.2474,0,0,0,0,0,-0.2451,-0.2459,-0.2461,-0.2474,-0.2476,-0.2476,-0.248,-0.2478,-0.2483,-0.2485,-0.2487,-0.2492,-0.25,-0.2506,-0.2513,-0.253,-0.2532,-0.2539,-0.2541,-0.2543,-0.2545,-0.2555,-0.2558,-0.2523,-0.2523,-0.2523,0,0,-0.246,-0.2462,-0.2468,-0.2476,-0.2479,-0.2488,-0.2478,-0.2487,-0.2494,-0.2486,-0.2499,-0.2501,-0.2507,-0.2522,-0.2529,-0.2525,-0.2555,-0.2545,-0.2546,-0.2547,-0.2557,-0.256,-0.2563,-0.2524,-0.2524,-0.2524,0,0,-0.2481,-0.2483,-0.2494,-0.2498,-0.2502,-0.2502,-0.2505,-0.2509,-0.251,-0.2523,-0.2517,-0.2526,-0.254,-0.2544,-0.2548,-0.2571,-0.2567,-0.2574,-0.2586,-0.2596,-0.2599,-0.2601,-0.261,-0.2613,-0.2575,-0.2575,-0.2575,0,-0.2491,-0.2504,-0.2501,-0.2511,-0.2515,-0.2509,-0.252,-0.2524,-0.2531,-0.2535,-0.2529,-0.2547,-0.255,-0.2567,-0.2573,-0.2576,-0.258,-0.2573,-0.2599,-0.2601,-0.2603,-0.2612,-0.2615,-0.2576,-0.2576,-0.2576,-0.2576,0,-0.2516,-0.2525,-0.2534,-0.2541,-0.2546,-0.2557,-0.2556,-0.2562,-0.256,-0.2561,-0.2575,-0.2578,-0.2587,-0.2591,-0.2589,-0.2608,-0.2605,-0.2599,-0.2589,-0.2608,-0.2615,-0.2619,-0.2577,-0.2577,-0.2577,-0.2577,0,0,-0.2544,-0.2549,-0.2553,-0.2556,-0.2561,-0.2568,-0.2579,-0.2588,-0.2593,-0.2598,-0.2608,-0.262,-0.2615,-0.262,-0.2618,-0.2627,-0.2646,-0.262,-0.2621,-0.2625,-0.2668,-0.2673,-0.2676,-0.2643,-0.2644,-0.2644,-0.2668,0,-0.2565,-0.2584,-0.2582,-0.26,-0.2608,-0.2603,-0.2612,-0.2617,-0.2618,-0.2626,-0.2627,-0.2636,-0.2629,-0.2632,-0.264,-0.2642,-0.2655,-0.264,-0.2653,-0.2653,-0.2652,-0.268,-0.2685,-0.2707,-0.2671,-0.2671,-0.2672,0,-0.2592,-0.2598,-0.2617,-0.2621,-0.2625,-0.2634,-0.2641,-0.2649,-0.2654,-0.2655,-0.266,-0.2657,-0.2669,-0.2659,-0.2676,-0.2666,-0.2671,-0.2673,-0.2674,-0.2675,-0.2664,-0.2683,-0.2714,-0.2718,-0.2676,-0.2676,-0.2676,0,-0.2611,-0.2624,-0.2637,-0.264,-0.2645,-0.2652,-0.2654,-0.2659,-0.2665,-0.2672,-0.2675,-0.2684,-0.2688,-0.2695,-0.2695,-0.2688,-0.2712,-0.2702,-0.2714,-0.2714,-0.2719,-0.2719,-0.2752,-0.2722,-0.2722,-0.2722,-0.2722,0,-0.2634,-0.2646,-0.2646,-0.2654,-0.2667,-0.2665,-0.2679,-0.2681,-0.2685,-0.2694,-0.269,-0.2699,-0.2698,-0.2707,-0.2707,-0.2721,-0.2723,-0.2724,-0.2724,-0.2725,-0.2725,-0.2728,-0.2727,-0.2723,-0.2723,-0.2722,-0.2722,0,-0.2658,-0.2658,-0.2672,-0.2676,-0.2677,-0.2687,-0.2691,-0.2699,-0.27,-0.2711,-0.2714,-0.2716,-0.2726,-0.2726,-0.2738,-0.2738,-0.2756,-0.2754,-0.2754,-0.2754,-0.2766,-0.2765,-0.2803,-0.2808,-0.2774,-0.2774,-0.2775,0,-0.2673,-0.2682,-0.2687,-0.2693,-0.2696,-0.2705,-0.271,-0.2709,-0.2715,-0.2722,-0.273,-0.2739,-0.2747,-0.2764,-0.2767,-0.2777,-0.2775,-0.2788,-0.2776,-0.2777,-0.2776,-0.2776,-0.2777,-0.279,-0.279,-0.2791,-0.2791,0,-0.2701,-0.27,-0.2708,-0.2716,-0.2723,-0.2729,-0.2735,-0.274,-0.2739,-0.2746,-0.2757,-0.2763,-0.2775,-0.2785,-0.2795,-0.2798,-0.2795,-0.2794,-0.2798,-0.2799,-0.2799,-0.2799,-0.2761,-0.2794,-0.2793,-0.2793,-0.2793,-0.2793,-0.2721,-0.2729,-0.2734,-0.2743,-0.2747,-0.2753,-0.2761,-0.2763,-0.2771,-0.2781,-0.278,-0.2792,-0.2798,-0.281,-0.2814,-0.2824,-0.282,-0.2824,-0.2826,-0.2827,-0.2829,-0.2797,-0.2826,-0.2826,-0.2826,-0.2826,-0.2825,0,-0.2748,-0.2751,-0.276,-0.2768,-0.2776,-0.2771,-0.2778,-0.2784,-0.2795,-0.2801,-0.2808,-0.2821,-0.2831,-0.2835,-0.2845,-0.2852,-0.2851,-0.2855,-0.2854,-0.2855,-0.2831,-0.2828,-0.2856,-0.2856,-0.2856,-0.2856,-0.2856,-0.2856,-0.2764,-0.2777,-0.2778,-0.2794,-0.2797,-0.2808,-0.2812,-0.2818,-0.2823,-0.2837,-0.2845,-0.2847,-0.2852,-0.2863,-0.2872,-0.2873,-0.2877,-0.2882,-0.2883,-0.286,-0.2857,-0.2854,-0.2851,-0.2883,-0.2883,-0.2906,-0.2906,-0.2906]}]]